Regional Weather Roundup
Issued by NWS Northern Indiana

Home | Current Version | Previous Version | Text Only | Print | Product List | Glossary Off
Versions: 1 2 3 4 5 6 7 8 9 10 11 12 13 14 15 16 17 18 19 20 21 22 23 24 25 26 27 28 29 30 31 32 33 34 35 36 37 38 39 40 41 42 43 44 45 46 47 48 49 50

000
ASUS43 KIWX 221510
RWRIWX

KIWX WEATHER ROUNDUP
NATIONAL WEATHER SERVICE NORTHERN INDIANA
1000 AM EST MON DEC 22 2014

NOTE: "FAIR" INDICATES FEW OR NO CLOUDS BELOW 12,000 FEET WITH NO
SIGNIFICANT WEATHER AND/OR OBSTRUCTIONS TO VISIBILITY.

* THESE STATIONS ARE NOT UNDER NWS QUALITY CONTROL. THEY ALSO MAY NOT
  REPORT WEATHER SUCH AS PRECIPITATION OR FOG.

INZ001>027-221600-
NORTHERN INDIANA

CITY           SKY/WX    TMP DP  RH WIND       PRES   REMARKS
GARY*          CLOUDY    34  25  69 SE13      29.92F WCI  25
VALPARAISO     CLOUDY    31  27  85 SE9       29.94F FOG     WCI  23
MICHIGAN CITY* CLOUDY    32  25  74 SE8       29.94F WCI  25
LAPORTE*       CLOUDY    33  30  90 E8        29.94F FOG     WCI  25
KNOX*          CLOUDY    32  25  74 SE10      29.93F WCI  24
SOUTH BEND     CLOUDY    31  26  82 E10       29.96F HAZE    WCI  22
ELKHART*       CLOUDY    30  23  74 E9        29.98F HAZE    WCI  22
GOSHEN         CLOUDY    30  25  81 E9        29.97F HAZE    WCI  22
MONTICELLO*    CLOUDY    32  29  89 SE6       29.92S WCI  27
LOGANSPORT*    CLOUDY    32  28  86 E8        29.94S FOG     WCI  25
ROCHESTER*     CLOUDY    34  30  86 E8        29.95F FOG     WCI  27
WARSAW*        MIX PCPN  30  27  86 E9        29.96F WCI  22
ANGOLA*        SUNNY     27  25  93 SE8       30.00S WCI  18
FORT WAYNE     CLOUDY    29  25  85 E10       29.99F FOG     WCI  20
HUNTINGTON*    CLOUDY    30  28  90 E7        29.97F FOG     WCI  23
PERU/GRISSOM   CLOUDY    33  33 100 SE12      29.93F WCI  24
MARION*        CLOUDY    33  28  83 SE12      29.96S WCI  24

$$
INZ028>050-221600-
CENTRAL INDIANA

CITY           SKY/WX    TMP DP  RH WIND       PRES   REMARKS
LAFAYETTE      CLOUDY    34  30  85 E7        29.92S WCI  28
KOKOMO*        CLOUDY    32  28  86 SE9       29.94S WCI  24
MUNCIE*        PTSUNNY   36  29  75 SE10      29.96F
INDIANAPOLIS   CLOUDY    35  30  82 SE13      29.92F WCI  26

$$
MIZ043>046-050>051-056>058-064>065-071>073-077>080-221600-
SOUTHWEST LOWER MICHIGAN

CITY           SKY/WX    TMP DP  RH WIND       PRES   REMARKS
BATTLE CREEK   MOSUNNY   30  23  75 SE7       30.01F HAZE    WCI  23
BENTON HARBOR  CLOUDY    30  25  81 E13       29.95F HAZE    WCI  20
COLDWATER*     CLOUDY    29  24  82 MISG      30.01S HAZE
HILLSDALE*     SUNNY     30  26  85 E8        30.02S FOG     WCI  22
HOLLAND        CLOUDY    32  25  75 E10       30.00R WCI  24
GRAND RAPIDS   MOSUNNY   30  24  78 SE9       30.02F HAZE    WCI  22
KALAMAZOO      CLOUDY    30  24  78 SE6       30.01R HAZE    WCI  24
STURGIS*       CLOUDY    28  25  86 E7        29.99S FOG     WCI  21
THREE RIVERS*  CLOUDY    29  25  85 SE8       30.01S FOG     WCI  21

$$
OHZ001>008-015>018-024>025-221600-
NORTHWEST OHIO

CITY           SKY/WX    TMP DP  RH WIND       PRES   REMARKS
WAUSEON*       FAIR      30  25  80 E8        30.05F HAZE    WCI  23
DEFIANCE       PTSUNNY   29  24  82 E8        30.04F HAZE    WCI  21
FINDLAY        CLOUDY    30  25  81 SE6       30.04S HAZE    WCI  24
TOLEDO EXPRESS SUNNY     29  24  82 E6        30.06S HAZE    WCI  23
TOLEDO METCALF SUNNY     30  23  75 E8        30.08S HAZE    WCI  22
LIMA           CLOUDY    33  27  78 E6        30.01F HAZE    WCI  28

$$
AND FOR LAKE MICHIGAN COASTAL AND OPEN LAKE BUOY OBSERVATIONS

STATION/POSITION TEMP    WIND        PRES    VSBY  WAVE
                 AIR SEA DIR/SP/G                  HT/PER
                 (F)     (DEG/KT/KT) (MB)    (MI)  (FT/S)
CALUMET HARBOR    33     130/  7/ 11 1012.0R
SAINT JOSEPH      31      90/  2/  7 1014.9R
MICHIGAN CITY CG     37                N/A       6   1

$$
&&



USA.gov is the U.S. government's official web portal to all federal, state and local government web resources and services.